[[{"header":{"parameterUnit":"m.s-1","parameterCategory":2,"la1":30.2991,"la2":30.254,"lo1":-89.0895,"lo2":-89.0444,"dy":0.0017,"dx":0.0017,"nx":28,"ny":28,"refTime":"2024-04-09T09:00:00:Z","depth":"0","parameterNumber":2,"parameterNumberName":"U-component_of_CURRENTS"},"data":[0,0,0,0,0,0,0,0,0,0,0,0,0,0,0,0,0,0,0,0,0,0,0,0,0,0,0,0,0,0,0,0,0,0,0,0,0,0,0,0,0,0,0,0,0,0,0,0,0,0,0,0,0,0,0,0,0,0,-0.2242,-0.2242,0,-0.2261,-0.2261,-0.2261,-0.2238,-0.2237,-0.2237,-0.2236,-0.2192,-0.2192,-0.2191,0,0,0,0,0,0,0,0,0,0,0,0,0,-0.2158,-0.216,-0.2242,-0.2242,-0.2243,-0.2261,-0.2261,-0.2261,-0.2238,-0.2237,-0.2236,-0.2236,-0.2193,-0.2192,-0.2191,0,0,0,0,0,0,0,0,0,0,0,0,0,-0.2184,-0.216,-0.2242,-0.2236,-0.2236,-0.2262,-0.2261,-0.2261,-0.2238,-0.2237,-0.2236,-0.2236,-0.2193,-0.2192,-0.2191,-0.2201,0,0,-0.2188,-0.2187,0,0,0,0,0,0,0,0,-0.2183,-0.2187,-0.2237,-0.2237,-0.2237,-0.225,-0.2216,-0.2239,-0.2238,-0.2233,-0.2236,-0.2235,-0.2209,-0.2206,-0.2207,-0.2199,-0.2197,-0.2188,-0.2187,-0.2187,-0.2186,0,0,0,0,0,0,0,-0.2181,-0.2186,-0.2246,-0.2237,-0.2238,-0.2224,-0.2227,-0.222,-0.2221,-0.2234,-0.2233,-0.2241,-0.2208,-0.2208,-0.2206,-0.2196,-0.2188,-0.2187,-0.2186,-0.2186,-0.2183,-0.2184,0,0,0,0,0,0,-0.2189,-0.2185,-0.2245,-0.2247,-0.2212,-0.2227,-0.223,-0.2243,-0.2223,-0.222,-0.2242,-0.224,-0.2211,-0.2207,-0.2204,-0.2219,-0.2187,-0.2186,-0.2185,-0.2183,-0.2183,-0.2184,0,0,0,0,0,0,-0.2187,-0.2195,-0.2245,-0.2218,-0.2224,-0.223,-0.2245,-0.2244,-0.2245,-0.223,-0.2226,-0.2244,-0.221,-0.2206,-0.2203,-0.2217,-0.2185,-0.2184,-0.2182,-0.2183,-0.2184,-0.2245,0,0,0,0,0,0,-0.2185,-0.2194,-0.22,-0.222,-0.2226,-0.2266,-0.2246,-0.2245,-0.2253,-0.2251,-0.2231,-0.2226,-0.2209,-0.2205,-0.2202,-0.2215,-0.2184,-0.2181,-0.2182,-0.2183,-0.2242,-0.2248,-0.2253,0,0,0,0,0,-0.2182,-0.2198,-0.22,-0.2207,-0.2237,-0.2267,-0.2269,-0.2267,-0.2254,-0.2262,-0.2247,-0.2226,-0.2209,-0.2205,-0.2201,-0.2214,-0.2181,-0.2182,-0.2183,-0.224,-0.2247,-0.2252,0,0,0,0,0,0,-0.2162,-0.2199,-0.2201,-0.2226,-0.2248,-0.2264,-0.2268,-0.2272,-0.2267,-0.2257,-0.2237,-0.2232,-0.2232,-0.2216,-0.2212,-0.2215,-0.219,-0.2191,-0.2234,-0.224,-0.2245,-0.2248,-0.2183,0,0,0,0,0,-0.2164,-0.2182,-0.2216,-0.2232,-0.2245,-0.2257,-0.2266,-0.227,-0.2274,-0.227,-0.2259,-0.2243,-0.2235,-0.2232,-0.2219,-0.2227,-0.2217,-0.2231,-0.2236,-0.2241,-0.224,-0.2245,-0.2251,-0.2188,-0.2188,-0.2188,0,0,-0.2158,-0.218,-0.2189,-0.2229,-0.2239,-0.2269,-0.2259,-0.2278,-0.2298,-0.2266,-0.2276,-0.2259,-0.224,-0.2246,-0.2244,-0.2234,-0.2255,-0.2242,-0.2246,-0.2243,-0.2247,-0.2253,-0.2258,-0.2188,-0.2188,-0.2188,0,0,-0.2162,-0.2179,-0.2199,-0.2226,-0.2256,-0.2271,-0.228,-0.2304,-0.2307,-0.2322,-0.2301,-0.2296,-0.2286,-0.228,-0.2274,-0.2301,-0.2279,-0.2293,-0.2326,-0.2332,-0.2337,-0.2342,-0.2346,-0.235,-0.23,-0.23,-0.23,0,-0.2153,-0.2188,-0.2207,-0.224,-0.2264,-0.2276,-0.2309,-0.2322,-0.2339,-0.2349,-0.233,-0.2325,-0.2303,-0.2321,-0.2322,-0.2313,-0.231,-0.2307,-0.234,-0.2344,-0.2347,-0.235,-0.2354,-0.2303,-0.2303,-0.2302,-0.2302,0,-0.2176,-0.221,-0.2224,-0.2271,-0.2299,-0.2327,-0.2361,-0.2378,-0.238,-0.2393,-0.2406,-0.2383,-0.2379,-0.2375,-0.2353,-0.2372,-0.236,-0.2344,-0.2327,-0.2358,-0.2358,-0.2362,-0.2307,-0.2306,-0.2305,-0.2305,0,0,-0.2141,-0.2226,-0.2229,-0.2264,-0.232,-0.2346,-0.2386,-0.2429,-0.2454,-0.2459,-0.2488,-0.247,-0.2454,-0.2445,-0.2424,-0.2426,-0.2445,-0.2396,-0.2395,-0.2405,-0.2458,-0.2428,-0.2428,-0.2437,-0.2438,-0.2438,-0.2452,0,-0.2151,-0.222,-0.226,-0.2321,-0.2361,-0.2399,-0.244,-0.2478,-0.2496,-0.2525,-0.2516,-0.2523,-0.2485,-0.2478,-0.2477,-0.2451,-0.2454,-0.2442,-0.2421,-0.2421,-0.2394,-0.2431,-0.236,-0.2364,-0.2455,-0.2455,-0.2456,0,-0.2156,-0.2207,-0.2272,-0.2362,-0.2382,-0.2416,-0.248,-0.2519,-0.2567,-0.258,-0.2593,-0.2584,-0.2587,-0.2543,-0.253,-0.2525,-0.2491,-0.2472,-0.2472,-0.2422,-0.2396,-0.2345,-0.2366,-0.2362,-0.246,-0.246,-0.246,0,-0.2119,-0.2212,-0.2263,-0.2294,-0.2394,-0.2422,-0.2465,-0.2525,-0.2561,-0.2605,-0.2628,-0.2639,-0.2632,-0.2609,-0.2559,-0.2546,-0.2544,-0.2522,-0.247,-0.2468,-0.2391,-0.2381,-0.2406,-0.2512,-0.2512,-0.2512,-0.2512,0,-0.2117,-0.2156,-0.2247,-0.2277,-0.2331,-0.2405,-0.2456,-0.2502,-0.257,-0.2611,-0.2639,-0.2661,-0.2644,-0.2639,-0.2592,-0.2544,-0.257,-0.2482,-0.2472,-0.2411,-0.2403,-0.238,-0.238,-0.2513,-0.2513,-0.2512,-0.2512,0,-0.2065,-0.2133,-0.2189,-0.2287,-0.2314,-0.2343,-0.2439,-0.2482,-0.2551,-0.2603,-0.2616,-0.2676,-0.267,-0.2656,-0.2622,-0.2579,-0.2506,-0.2513,-0.2443,-0.2424,-0.2365,-0.2371,-0.2356,-0.2294,-0.2466,-0.2466,-0.2465,0,-0.2046,-0.2071,-0.2163,-0.2192,-0.2231,-0.2291,-0.234,-0.2442,-0.2487,-0.26,-0.2618,-0.2656,-0.266,-0.263,-0.2565,-0.2508,-0.2476,-0.2412,-0.2369,-0.2362,-0.2362,-0.2354,-0.2302,-0.2297,-0.2295,-0.2293,-0.2292,0,-0.1994,-0.2019,-0.2065,-0.2117,-0.2168,-0.2222,-0.2292,-0.2333,-0.2453,-0.2515,-0.2585,-0.2609,-0.2607,-0.2536,-0.2476,-0.2416,-0.2369,-0.2378,-0.2387,-0.2248,-0.2223,-0.2158,-0.2295,-0.2278,-0.228,-0.2281,-0.2281,-0.2282,-0.193,-0.1936,-0.1985,-0.2025,-0.2083,-0.2115,-0.2122,-0.2217,-0.2278,-0.2341,-0.2456,-0.2473,-0.2492,-0.24,-0.2363,-0.2273,-0.2263,-0.2202,-0.2216,-0.2214,-0.2135,-0.2246,-0.2207,-0.2208,-0.2209,-0.221,-0.221,0,-0.1842,-0.1858,-0.1893,-0.193,-0.1939,-0.1999,-0.2062,-0.2051,-0.2081,-0.2185,-0.223,-0.2301,-0.2255,-0.2274,-0.2223,-0.2144,-0.2077,-0.2087,-0.206,-0.2016,-0.2127,-0.2099,-0.2015,-0.2015,-0.2015,-0.2015,-0.2015,-0.2015,-0.1794,-0.1783,-0.18,-0.1766,-0.1786,-0.1742,-0.1744,-0.1753,-0.1797,-0.1839,-0.1918,-0.2015,-0.2073,-0.2272,-0.2204,-0.2107,-0.204,-0.1975,-0.1977,-0.2073,-0.2085,-0.2096,-0.2072,-0.1983,-0.1983,-0.1806,-0.1805,-0.1804]},{"header":{"parameterUnit":"m.s-1","parameterCategory":2,"la1":30.2991,"la2":30.254,"lo1":-89.0895,"lo2":-89.0444,"dy":0.0017,"dx":0.0017,"nx":28,"ny":28,"refTime":"2024-04-09T09:00:00:Z","depth":"0","parameterNumber":3,"parameterNumberName":"V-component_of_CURRENTS"},"data":[0,0,0,0,0,0,0,0,0,0,0,0,0,0,0,0,0,0,0,0,0,0,0,0,0,0,0,0,0,0,0,0,0,0,0,0,0,0,0,0,0,0,0,0,0,0,0,0,0,0,0,0,0,0,0,0,0,0,-0.012,-0.0119,0,-0.0039,-0.0039,-0.0038,0.0014,0.0014,0.0014,0.0015,0.0111,0.0113,0.0115,0,0,0,0,0,0,0,0,0,0,0,0,0,-0.0183,-0.0182,-0.012,-0.0119,-0.0118,-0.004,-0.0038,-0.0037,0.0014,0.0014,0.0014,0.0015,0.011,0.0113,0.0116,0,0,0,0,0,0,0,0,0,0,0,0,0,-0.0134,-0.0182,-0.012,-0.0084,-0.008,-0.004,-0.0038,-0.0037,0.0014,0.0014,0.0015,0.0015,0.0109,0.0112,0.0116,0.0131,0,0,0.0127,0.0128,0,0,0,0,0,0,0,0,-0.0137,-0.0131,-0.009,-0.0086,-0.0082,-0.0023,-0.0025,0.002,0.0014,-0.0021,0.0015,0.0015,0.0067,0.0074,0.0089,0.0136,0.014,0.0127,0.0129,0.0131,0.0132,0,0,0,0,0,0,0,-0.014,-0.0134,-0.0087,-0.0089,-0.0084,-0.0056,-0.0049,-0.0016,0.0021,-0.0018,-0.0014,-0.0007,0.0069,0.0086,0.0092,0.0141,0.0127,0.013,0.0132,0.0134,0.0227,0.0227,0,0,0,0,0,0,-0.0155,-0.0138,-0.009,-0.0085,-0.011,-0.0055,-0.0047,-0.0042,0.002,0.003,-0.0007,-0.0005,0.0079,0.0088,0.0095,0.013,0.0131,0.0134,0.0136,0.0226,0.0227,0.0227,0,0,0,0,0,0,-0.0156,-0.0151,-0.0093,-0.011,-0.0101,-0.0055,-0.0049,-0.004,-0.0024,0.0028,0.0038,0.0,0.008,0.009,0.0128,0.0133,0.0136,0.0139,0.0226,0.0226,0.0227,0.019,0,0,0,0,0,0,-0.0159,-0.0152,-0.0157,-0.0111,-0.01,-0.0076,-0.0049,-0.0039,-0.002,-0.0016,0.0038,0.0047,0.0081,0.0122,0.0131,0.0138,0.0142,0.0226,0.0226,0.0227,0.0191,0.0189,0.0188,0,0,0,0,0,-0.0161,-0.0171,-0.0157,-0.0152,-0.0107,-0.0077,-0.0069,-0.0034,-0.0021,-0.0017,0.0025,0.0046,0.0133,0.0126,0.0136,0.0144,0.0225,0.0226,0.0227,0.0192,0.019,0.0188,0,0,0,0,0,0,-0.0203,-0.0165,-0.0149,-0.0148,-0.0117,-0.0069,-0.0065,-0.0039,-0.0003,-0.0,0.0051,0.0063,0.0097,0.0125,0.0116,0.0173,0.0182,0.0185,0.0152,0.015,0.0149,0.0134,0.0145,0,0,0,0,0,-0.0215,-0.0211,-0.0168,-0.0168,-0.0156,-0.0112,-0.0096,-0.0072,-0.0033,-0.0017,0.0024,0.0068,0.0108,0.0132,0.0167,0.0199,0.0232,0.0211,0.021,0.0208,0.0203,0.0259,0.0262,0.023,0.023,0.023,0,0,-0.0232,-0.0211,-0.0209,-0.0177,-0.0152,-0.0139,-0.0102,-0.0084,-0.0067,-0.0013,0.0019,0.006,0.0114,0.0151,0.0169,0.0176,0.0236,0.0209,0.0207,0.0203,0.026,0.0263,0.0266,0.023,0.023,0.023,0,0,-0.0267,-0.0245,-0.0255,-0.0231,-0.0198,-0.0167,-0.0165,-0.0117,-0.0089,-0.0055,-0.0008,0.004,0.0093,0.0143,0.0173,0.0185,0.0221,0.0192,0.0179,0.0232,0.0235,0.0238,0.0286,0.0293,0.0196,0.0196,0.0196,0,-0.029,-0.0294,-0.0253,-0.0253,-0.0239,-0.0183,-0.0187,-0.0148,-0.0092,-0.0067,-0.0054,0.0048,0.0093,0.0155,0.016,0.0182,0.0212,0.018,0.023,0.0234,0.0237,0.0285,0.0294,0.0195,0.0195,0.0195,0.0195,0,-0.0326,-0.0329,-0.0333,-0.0312,-0.0289,-0.0285,-0.0227,-0.02,-0.0162,-0.0116,-0.0053,0.0019,0.008,0.0106,0.0137,0.019,0.0202,0.0216,0.0231,0.0238,0.0288,0.0298,0.0192,0.0193,0.0193,0.0194,0,0,-0.0377,-0.0364,-0.0365,-0.037,-0.0321,-0.031,-0.0276,-0.0228,-0.0206,-0.0136,-0.0097,-0.0009,0.0035,0.0072,0.0129,0.0182,0.0239,0.0204,0.0208,0.0244,0.0352,0.0401,0.0417,0.0258,0.026,0.0261,0.0377,0,-0.0419,-0.045,-0.0416,-0.0431,-0.0443,-0.0376,-0.035,-0.0293,-0.0234,-0.018,-0.0082,-0.0028,0.0023,0.0052,0.0117,0.0208,0.0263,0.0206,0.0345,0.0349,0.0387,0.0429,0.0485,0.0597,0.0387,0.0388,0.039,0,-0.0463,-0.048,-0.0514,-0.0502,-0.0497,-0.0487,-0.0435,-0.0403,-0.0303,-0.0255,-0.0169,-0.0093,0.0013,0.0043,0.0211,0.0169,0.0251,0.0322,0.0329,0.0393,0.0417,0.0557,0.0623,0.0795,0.0405,0.0404,0.0403,0,-0.0533,-0.0543,-0.0578,-0.0573,-0.0547,-0.0539,-0.0515,-0.0432,-0.0404,-0.0301,-0.0266,-0.0129,-0.0057,0.0066,0.023,0.0215,0.0409,0.0409,0.0533,0.0537,0.0623,0.0632,0.0867,0.0515,0.0515,0.0514,0.0514,0,-0.0596,-0.062,-0.0618,-0.0638,-0.067,-0.0613,-0.0614,-0.0566,-0.0487,-0.0452,-0.0315,-0.0245,-0.0051,0.0093,0.0222,0.0424,0.0411,0.0542,0.0578,0.0612,0.0619,0.0801,0.0852,0.0519,0.0518,0.0517,0.0516,0,-0.0669,-0.0668,-0.0709,-0.0705,-0.0711,-0.0732,-0.0703,-0.0692,-0.0605,-0.0553,-0.0523,-0.0326,-0.0123,0.008,0.0302,0.0421,0.0705,0.0663,0.0691,0.0728,0.0988,0.1033,0.1254,0.1339,0.0816,0.0818,0.0819,0,-0.071,-0.0744,-0.0778,-0.0816,-0.0821,-0.0839,-0.0849,-0.0772,-0.0746,-0.0595,-0.0569,-0.0355,-0.0177,0.0189,0.0449,0.0711,0.0812,0.0888,0.0873,0.1031,0.1107,0.1118,0.1173,0.0975,0.0977,0.098,0.0982,0,-0.0788,-0.0798,-0.0837,-0.0924,-0.0956,-0.098,-0.0977,-0.0972,-0.0861,-0.0778,-0.0615,-0.0456,-0.0063,0.0308,0.0656,0.0798,0.1017,0.0942,0.1113,0.1263,0.1284,0.1373,0.086,0.1002,0.1,0.0999,0.0998,0.0997,-0.0839,-0.0894,-0.0952,-0.1029,-0.1073,-0.1103,-0.1117,-0.107,-0.1009,-0.084,-0.0659,-0.0363,0.019,0.0718,0.0894,0.1287,0.1201,0.1387,0.1431,0.1429,0.1513,0.1039,0.1212,0.1211,0.1211,0.121,0.1209,0,-0.0905,-0.0969,-0.1055,-0.1134,-0.1195,-0.1188,-0.1187,-0.1151,-0.1075,-0.0839,-0.0624,0.0026,0.0555,0.1025,0.1595,0.1783,0.1797,0.186,0.1908,0.1942,0.1553,0.1563,0.1812,0.1812,0.1811,0.1811,0.1811,0.1811,-0.0944,-0.1047,-0.1098,-0.1223,-0.1272,-0.132,-0.1317,-0.1221,-0.105,-0.0636,-0.0247,0.0099,0.0788,0.1729,0.2234,0.2249,0.2399,0.2361,0.2433,0.2191,0.215,0.2111,0.2138,0.2503,0.2503,0.2816,0.282,0.2822]}],[{"header":{"parameterUnit":"m.s-1","parameterCategory":2,"la1":30.2991,"la2":30.254,"lo1":-89.0895,"lo2":-89.0444,"dy":0.0017,"dx":0.0017,"nx":28,"ny":28,"refTime":"2024-04-09T09:00:00:Z","depth":"2","parameterNumber":2,"parameterNumberName":"U-component_of_CURRENTS"},"data":[0,0,0,0,0,0,0,0,0,0,0,0,0,0,0,0,0,0,0,0,0,0,0,0,0,0,0,0,0,0,0,0,0,0,0,0,0,0,0,0,0,0,0,0,0,0,0,0,0,0,0,0,0,0,0,0,0,0,-0.2138,-0.2139,0,-0.2157,-0.2157,-0.2157,-0.2137,-0.2136,-0.2136,-0.2135,-0.2094,-0.2093,-0.2093,0,0,0,0,0,0,0,0,0,0,0,0,0,-0.2057,-0.2059,-0.2138,-0.2139,-0.2139,-0.2157,-0.2157,-0.2157,-0.2137,-0.2136,-0.2136,-0.2135,-0.2094,-0.2094,-0.2093,0,0,0,0,0,0,0,0,0,0,0,0,0,-0.2083,-0.2059,-0.2138,-0.2134,-0.2134,-0.2157,-0.2157,-0.2157,-0.2137,-0.2136,-0.2135,-0.2135,-0.2095,-0.2094,-0.2093,-0.2099,0,0,-0.2089,-0.2089,0,0,0,0,0,0,0,0,-0.2081,-0.2085,-0.2134,-0.2134,-0.2135,-0.2147,-0.2114,-0.2136,-0.2137,-0.2132,-0.2135,-0.2135,-0.2109,-0.2107,-0.2107,-0.2097,-0.2095,-0.2089,-0.2089,-0.2088,-0.2088,0,0,0,0,0,0,0,-0.2079,-0.2084,-0.2142,-0.2135,-0.2135,-0.2122,-0.2125,-0.2117,-0.212,-0.2132,-0.2132,-0.214,-0.2108,-0.2109,-0.2106,-0.2095,-0.2089,-0.2088,-0.2088,-0.2087,-0.2083,-0.2083,0,0,0,0,0,0,-0.2087,-0.2083,-0.2141,-0.2143,-0.211,-0.2125,-0.2128,-0.2141,-0.2121,-0.2119,-0.2141,-0.2139,-0.2111,-0.2107,-0.2105,-0.212,-0.2088,-0.2087,-0.2087,-0.2082,-0.2083,-0.2084,0,0,0,0,0,0,-0.2085,-0.2092,-0.214,-0.2115,-0.2121,-0.2127,-0.2142,-0.2141,-0.2144,-0.2129,-0.2125,-0.2144,-0.211,-0.2106,-0.2104,-0.2118,-0.2087,-0.2086,-0.2082,-0.2083,-0.2083,-0.2145,0,0,0,0,0,0,-0.2083,-0.2092,-0.2098,-0.2116,-0.2123,-0.2161,-0.2143,-0.2142,-0.2152,-0.215,-0.2131,-0.2126,-0.2109,-0.2106,-0.2103,-0.2116,-0.2085,-0.2081,-0.2082,-0.2083,-0.2143,-0.2148,-0.2153,0,0,0,0,0,-0.208,-0.2096,-0.2099,-0.2105,-0.2134,-0.2162,-0.2164,-0.2163,-0.2153,-0.2161,-0.2146,-0.2127,-0.2109,-0.2106,-0.2102,-0.2115,-0.2081,-0.2082,-0.2083,-0.214,-0.2147,-0.2153,0,0,0,0,0,0,-0.2061,-0.2097,-0.2099,-0.2124,-0.2145,-0.216,-0.2165,-0.2169,-0.2165,-0.2156,-0.2137,-0.2132,-0.2133,-0.2116,-0.2113,-0.2115,-0.209,-0.2091,-0.2135,-0.2141,-0.2146,-0.2149,-0.2084,0,0,0,0,0,-0.2063,-0.2081,-0.2114,-0.213,-0.2142,-0.2154,-0.2163,-0.2168,-0.2171,-0.2169,-0.2158,-0.2143,-0.2135,-0.2132,-0.2119,-0.2127,-0.2116,-0.2131,-0.2136,-0.214,-0.214,-0.2145,-0.215,-0.2087,-0.2087,-0.2087,0,0,-0.2058,-0.208,-0.2089,-0.2126,-0.2136,-0.2165,-0.2156,-0.2176,-0.2196,-0.2165,-0.2175,-0.2159,-0.214,-0.2145,-0.2144,-0.2134,-0.2154,-0.2142,-0.2146,-0.2143,-0.2146,-0.2153,-0.2158,-0.2088,-0.2088,-0.2088,0,0,-0.2062,-0.2079,-0.2098,-0.2124,-0.2154,-0.2168,-0.2178,-0.2201,-0.2205,-0.2221,-0.22,-0.2196,-0.2186,-0.218,-0.2174,-0.22,-0.2178,-0.2192,-0.2226,-0.2231,-0.2236,-0.2241,-0.2246,-0.225,-0.2199,-0.2199,-0.2199,0,-0.2054,-0.2088,-0.2106,-0.2138,-0.2161,-0.2173,-0.2205,-0.2218,-0.2236,-0.2246,-0.2229,-0.2224,-0.2203,-0.2219,-0.2221,-0.2212,-0.221,-0.2207,-0.2239,-0.2243,-0.2247,-0.225,-0.2254,-0.2202,-0.2202,-0.2201,-0.2201,0,-0.2076,-0.2109,-0.2122,-0.2167,-0.2195,-0.2222,-0.2255,-0.2273,-0.2276,-0.2289,-0.2303,-0.2281,-0.2278,-0.2273,-0.2252,-0.2271,-0.226,-0.2244,-0.2227,-0.2257,-0.2258,-0.2262,-0.2207,-0.2205,-0.2205,-0.2204,0,0,-0.2043,-0.2124,-0.2127,-0.216,-0.2216,-0.2241,-0.228,-0.2322,-0.2347,-0.2353,-0.2383,-0.2366,-0.2351,-0.2342,-0.2322,-0.2325,-0.2344,-0.2295,-0.2294,-0.2306,-0.2359,-0.2327,-0.2327,-0.2337,-0.2338,-0.2338,-0.2353,0,-0.2052,-0.2118,-0.2157,-0.2215,-0.2254,-0.2291,-0.2331,-0.2369,-0.2388,-0.2417,-0.2409,-0.2418,-0.2381,-0.2376,-0.2376,-0.235,-0.2354,-0.2342,-0.2322,-0.2321,-0.2294,-0.233,-0.2119,-0.2112,-0.2356,-0.2357,-0.2357,0,-0.2057,-0.2105,-0.2168,-0.2254,-0.2273,-0.2307,-0.2371,-0.2409,-0.2457,-0.2471,-0.2486,-0.2478,-0.2482,-0.2441,-0.2429,-0.2423,-0.2392,-0.2373,-0.2373,-0.2321,-0.2295,-0.2118,-0.2109,-0.2362,-0.2361,-0.2361,-0.2361,0,-0.202,-0.211,-0.2159,-0.2189,-0.2286,-0.2314,-0.2356,-0.2416,-0.2451,-0.2497,-0.2521,-0.2533,-0.2528,-0.2506,-0.2458,-0.2446,-0.2444,-0.2423,-0.2371,-0.2369,-0.2172,-0.2151,-0.2414,-0.2414,-0.2414,-0.2414,-0.2414,0,-0.2018,-0.2056,-0.2144,-0.2174,-0.2226,-0.2298,-0.2349,-0.2395,-0.2463,-0.2503,-0.2533,-0.2555,-0.2541,-0.2537,-0.2491,-0.2444,-0.247,-0.2383,-0.2373,-0.2189,-0.2171,-0.2367,-0.2362,-0.2414,-0.2414,-0.2414,-0.2414,0,-0.1968,-0.2033,-0.2088,-0.2183,-0.221,-0.2239,-0.2333,-0.2376,-0.2445,-0.2497,-0.2511,-0.257,-0.2565,-0.2553,-0.2521,-0.2479,-0.2441,-0.2414,-0.2203,-0.2169,-0.2356,-0.2353,-0.2369,-0.2368,-0.2367,-0.2366,-0.2366,0,-0.1949,-0.1973,-0.2063,-0.2091,-0.213,-0.219,-0.2238,-0.2339,-0.2382,-0.2494,-0.251,-0.255,-0.2549,-0.2521,-0.2432,-0.237,-0.242,-0.2166,-0.2104,-0.2364,-0.2353,-0.2351,-0.235,-0.1866,-0.1862,-0.1858,-0.1855,0,-0.1899,-0.1924,-0.1968,-0.202,-0.207,-0.2121,-0.2191,-0.2229,-0.2347,-0.2404,-0.2471,-0.2491,-0.2466,-0.2309,-0.2241,-0.2171,-0.2164,-0.2091,-0.2402,-0.1925,-0.1895,-0.1883,-0.1896,-0.1821,-0.1825,-0.1827,-0.1829,-0.183,-0.1837,-0.1843,-0.1891,-0.193,-0.1987,-0.2017,-0.2021,-0.2097,-0.215,-0.2166,-0.2301,-0.2234,-0.2229,-0.1998,-0.1926,-0.1848,-0.1984,-0.1881,-0.189,-0.1904,-0.1858,-0.1829,-0.1734,-0.1737,-0.1739,-0.1741,-0.1743,0,-0.1745,-0.1766,-0.18,-0.1836,-0.1836,-0.1903,-0.1962,-0.1912,-0.1912,-0.1939,-0.1946,-0.1738,-0.1662,-0.1658,-0.1486,-0.1495,-0.1447,-0.1442,-0.1359,-0.1392,-0.1422,-0.135,-0.1093,-0.1091,-0.109,-0.1088,0,0,-0.1696,-0.1682,-0.1697,-0.1658,-0.1684,-0.1621,-0.1621,-0.1556,-0.1523,-0.1414,-0.1358,-0.1467,-0.1559,-0.1288,-0.1265,-0.1148,-0.1248,-0.1092,-0.1606,-0.1535,-0.1563,-0.1664,-0.1589,0,0,0,0,0]},{"header":{"parameterUnit":"m.s-1","parameterCategory":2,"la1":30.2991,"la2":30.254,"lo1":-89.0895,"lo2":-89.0444,"dy":0.0017,"dx":0.0017,"nx":28,"ny":28,"refTime":"2024-04-09T09:00:00:Z","depth":"2","parameterNumber":3,"parameterNumberName":"V-component_of_CURRENTS"},"data":[0,0,0,0,0,0,0,0,0,0,0,0,0,0,0,0,0,0,0,0,0,0,0,0,0,0,0,0,0,0,0,0,0,0,0,0,0,0,0,0,0,0,0,0,0,0,0,0,0,0,0,0,0,0,0,0,0,0,-0.015,-0.0149,0,-0.0072,-0.0071,-0.007,-0.002,-0.0019,-0.0019,-0.0019,0.0075,0.0077,0.008,0,0,0,0,0,0,0,0,0,0,0,0,0,-0.0211,-0.0211,-0.015,-0.0149,-0.0148,-0.0072,-0.0071,-0.007,-0.002,-0.0019,-0.0019,-0.0019,0.0074,0.0077,0.008,0,0,0,0,0,0,0,0,0,0,0,0,0,-0.0163,-0.021,-0.015,-0.0115,-0.0111,-0.0072,-0.0071,-0.0069,-0.002,-0.0019,-0.0019,-0.0019,0.0073,0.0077,0.008,0.0094,0,0,0.0091,0.0092,0,0,0,0,0,0,0,0,-0.0166,-0.0161,-0.0121,-0.0117,-0.0113,-0.0056,-0.0058,-0.0014,-0.002,-0.0053,-0.0019,-0.0018,0.0032,0.0039,0.0054,0.0099,0.0103,0.0091,0.0093,0.0094,0.0095,0,0,0,0,0,0,0,-0.017,-0.0164,-0.0118,-0.012,-0.0115,-0.0087,-0.0081,-0.0049,-0.0013,-0.005,-0.0047,-0.004,0.0034,0.005,0.0056,0.0104,0.0091,0.0094,0.0096,0.0097,0.0187,0.0188,0,0,0,0,0,0,-0.0184,-0.0167,-0.0121,-0.0116,-0.014,-0.0087,-0.0079,-0.0074,-0.0013,-0.0004,-0.004,-0.0038,0.0044,0.0052,0.006,0.0094,0.0094,0.0098,0.01,0.0187,0.0188,0.0188,0,0,0,0,0,0,-0.0185,-0.018,-0.0124,-0.014,-0.0131,-0.0087,-0.0081,-0.0072,-0.0056,-0.0006,0.0004,-0.0033,0.0045,0.0055,0.0092,0.0097,0.0099,0.0102,0.0187,0.0187,0.0188,0.0153,0,0,0,0,0,0,-0.0187,-0.0181,-0.0185,-0.0141,-0.0131,-0.0108,-0.0081,-0.0071,-0.0053,-0.0049,0.0004,0.0013,0.0046,0.0086,0.0095,0.0102,0.0105,0.0186,0.0187,0.0188,0.0153,0.0152,0.0151,0,0,0,0,0,-0.019,-0.0199,-0.0186,-0.018,-0.0137,-0.0108,-0.01,-0.0066,-0.0053,-0.005,-0.0008,0.0012,0.0097,0.0089,0.01,0.0107,0.0186,0.0187,0.0188,0.0154,0.0152,0.0151,0,0,0,0,0,0,-0.0231,-0.0194,-0.0178,-0.0177,-0.0147,-0.01,-0.0097,-0.0071,-0.0036,-0.0033,0.0017,0.0029,0.0061,0.0089,0.008,0.0136,0.0144,0.0147,0.0115,0.0114,0.0113,0.0097,0.0108,0,0,0,0,0,-0.0242,-0.0238,-0.0197,-0.0197,-0.0185,-0.0142,-0.0127,-0.0103,-0.0065,-0.005,-0.001,0.0033,0.0072,0.0096,0.0129,0.0161,0.0193,0.0173,0.0171,0.017,0.0165,0.022,0.0223,0.019,0.019,0.019,0,0,-0.0258,-0.0238,-0.0236,-0.0205,-0.0181,-0.0169,-0.0132,-0.0115,-0.0099,-0.0045,-0.0015,0.0026,0.0078,0.0114,0.0131,0.0139,0.0197,0.0171,0.0169,0.0165,0.0221,0.0224,0.0227,0.0191,0.0191,0.0191,0,0,-0.0293,-0.0272,-0.0281,-0.0258,-0.0226,-0.0196,-0.0194,-0.0147,-0.012,-0.0087,-0.0041,0.0006,0.0058,0.0107,0.0136,0.0148,0.0183,0.0154,0.0141,0.0195,0.0198,0.0201,0.0247,0.0254,0.0159,0.0159,0.0159,0,-0.0316,-0.032,-0.028,-0.028,-0.0267,-0.0212,-0.0216,-0.0178,-0.0124,-0.0099,-0.0086,0.0013,0.0057,0.0118,0.0124,0.0145,0.0174,0.0142,0.0192,0.0196,0.02,0.0246,0.0255,0.0157,0.0157,0.0157,0.0157,0,-0.0352,-0.0355,-0.0359,-0.0339,-0.0317,-0.0313,-0.0256,-0.023,-0.0192,-0.0147,-0.0086,-0.0015,0.0045,0.007,0.0101,0.0153,0.0165,0.0179,0.0193,0.0201,0.025,0.0259,0.0155,0.0155,0.0156,0.0156,0,0,-0.0402,-0.039,-0.039,-0.0396,-0.0348,-0.0337,-0.0305,-0.0258,-0.0237,-0.0168,-0.0129,-0.0043,0.0001,0.0038,0.0093,0.0146,0.0203,0.0167,0.0171,0.0207,0.0314,0.0358,0.0373,0.0222,0.0224,0.0225,0.0338,0,-0.0444,-0.0475,-0.0441,-0.0457,-0.0469,-0.0403,-0.0378,-0.0323,-0.0265,-0.0212,-0.0115,-0.0062,-0.0011,0.0018,0.0082,0.0172,0.0226,0.017,0.0306,0.031,0.0344,0.0385,0.0308,0.0405,0.0347,0.0349,0.035,0,-0.0488,-0.0505,-0.0538,-0.0527,-0.0523,-0.0513,-0.0463,-0.0432,-0.0333,-0.0286,-0.0201,-0.0125,-0.0021,0.0009,0.0175,0.0134,0.0215,0.0285,0.0291,0.035,0.0373,0.039,0.0425,0.0367,0.0365,0.0364,0.0363,0,-0.0557,-0.0567,-0.0602,-0.0597,-0.0572,-0.0564,-0.0541,-0.046,-0.0433,-0.0331,-0.0296,-0.0161,-0.009,0.0031,0.0193,0.0179,0.0368,0.037,0.0488,0.0492,0.0463,0.0462,0.0475,0.0475,0.0474,0.0474,0.0474,0,-0.0619,-0.0643,-0.0641,-0.0661,-0.0693,-0.0638,-0.0638,-0.0592,-0.0514,-0.048,-0.0345,-0.0277,-0.0084,0.0057,0.0185,0.0381,0.0371,0.0497,0.0531,0.045,0.0447,0.0438,0.0432,0.0478,0.0477,0.0477,0.0476,0,-0.0691,-0.069,-0.0731,-0.0728,-0.0733,-0.0754,-0.0726,-0.0716,-0.063,-0.0579,-0.055,-0.0357,-0.0159,0.0041,0.026,0.0377,0.0549,0.0613,0.0507,0.0528,0.0633,0.0624,0.0754,0.0756,0.0758,0.076,0.0762,0,-0.0732,-0.0765,-0.0799,-0.0836,-0.0841,-0.0859,-0.0869,-0.0794,-0.0769,-0.0622,-0.0597,-0.0389,-0.0219,0.0138,0.0368,0.0617,0.0621,0.0689,0.0658,0.0645,0.0665,0.0652,0.0641,0.0602,0.0602,0.0602,0.0602,0,-0.0809,-0.0818,-0.0857,-0.0942,-0.0974,-0.0999,-0.0996,-0.0991,-0.0883,-0.0805,-0.0648,-0.0498,-0.014,0.0145,0.0475,0.0598,0.0646,0.0701,0.0726,0.0548,0.0513,0.0529,0.052,0.0603,0.0603,0.0603,0.0603,0.0603,-0.0859,-0.0913,-0.097,-0.1046,-0.1089,-0.112,-0.1134,-0.109,-0.1034,-0.0891,-0.0716,-0.0473,-0.0172,0.0288,0.0518,0.0708,0.0713,0.0742,0.0737,0.0733,0.07,0.0671,0.0785,0.0786,0.0786,0.0787,0.0788,0,-0.0923,-0.0987,-0.1072,-0.1149,-0.1207,-0.1203,-0.1204,-0.1172,-0.1103,-0.0927,-0.074,-0.0416,-0.0076,0.0226,0.0532,0.0743,0.0695,0.076,0.0655,0.0653,0.0651,0.0609,0.0673,0.0674,0.0674,0.0675,0,0,-0.0961,-0.1061,-0.1111,-0.1233,-0.1283,-0.1329,-0.1328,-0.1246,-0.1115,-0.0931,-0.0748,-0.0461,-0.0077,0.0125,0.0382,0.0538,0.0535,0.0535,0.0599,0.044,0.0436,0.0608,0.0539,0,0,0,0,0]}],[{"header":{"parameterUnit":"m.s-1","parameterCategory":2,"la1":30.2991,"la2":30.254,"lo1":-89.0895,"lo2":-89.0444,"dy":0.0017,"dx":0.0017,"nx":28,"ny":28,"refTime":"2024-04-09T09:00:00:Z","depth":"4","parameterNumber":2,"parameterNumberName":"U-component_of_CURRENTS"},"data":[0,0,0,0,0,0,0,0,0,0,0,0,0,0,0,0,0,0,0,0,0,0,0,0,0,0,0,0,0,0,0,0,0,0,0,0,0,0,0,0,0,0,0,0,0,0,0,0,0,0,0,0,0,0,0,0,0,0,-0.1393,-0.1394,0,-0.1448,-0.1449,-0.1449,-0.1483,-0.1484,-0.1484,-0.1484,-0.1513,-0.1513,-0.1514,0,0,0,0,0,0,0,0,0,0,0,0,0,-0.1295,-0.1296,-0.1393,-0.1394,-0.1395,-0.1448,-0.1449,-0.1449,-0.1483,-0.1484,-0.1484,-0.1485,-0.1513,-0.1513,-0.1514,0,0,0,0,0,0,0,0,0,0,0,0,0,-0.134,-0.1297,-0.1393,-0.142,-0.1423,-0.1448,-0.1449,-0.1449,-0.1483,-0.1484,-0.1484,-0.1485,-0.1513,-0.1513,-0.1514,-0.1506,0,0,-0.1516,-0.1516,0,0,0,0,0,0,0,0,-0.1338,-0.1344,-0.1415,-0.1418,-0.1422,-0.1462,-0.1425,-0.1468,-0.1483,-0.1458,-0.1484,-0.1485,-0.1494,-0.1497,-0.1503,-0.1507,-0.1508,-0.1516,-0.1516,-0.1516,-0.1516,0,0,0,0,0,0,0,-0.1334,-0.1341,-0.1412,-0.1416,-0.142,-0.1422,-0.1429,-0.1433,-0.147,-0.146,-0.1463,-0.1473,-0.1496,-0.1502,-0.1503,-0.1509,-0.1516,-0.1516,-0.1517,-0.1517,-0.1568,-0.1569,0,0,0,0,0,0,-0.1333,-0.1339,-0.1411,-0.1414,-0.1383,-0.1423,-0.1431,-0.1446,-0.147,-0.1476,-0.1472,-0.1474,-0.1501,-0.1503,-0.1505,-0.1563,-0.1516,-0.1517,-0.1517,-0.1567,-0.1569,-0.157,0,0,0,0,0,0,-0.1331,-0.1339,-0.1409,-0.1379,-0.1388,-0.1425,-0.1441,-0.1447,-0.148,-0.1481,-0.1485,-0.1502,-0.1501,-0.1504,-0.1534,-0.1562,-0.1517,-0.1518,-0.1566,-0.1568,-0.1569,-0.1637,0,0,0,0,0,0,-0.1328,-0.1338,-0.1357,-0.1379,-0.139,-0.1442,-0.1441,-0.1448,-0.1484,-0.1488,-0.1507,-0.1509,-0.1502,-0.1534,-0.1535,-0.1562,-0.1518,-0.1565,-0.1567,-0.1569,-0.1633,-0.164,-0.1647,0,0,0,0,0,-0.1324,-0.1346,-0.1358,-0.1367,-0.1412,-0.1444,-0.145,-0.1475,-0.1485,-0.1505,-0.1521,-0.151,-0.1546,-0.1535,-0.1537,-0.1564,-0.1564,-0.1566,-0.1568,-0.163,-0.1639,-0.1646,0,0,0,0,0,0,-0.1313,-0.1352,-0.1366,-0.1399,-0.1429,-0.1451,-0.1472,-0.149,-0.1518,-0.1526,-0.1525,-0.1528,-0.1562,-0.1553,-0.1541,-0.1583,-0.1552,-0.1555,-0.1599,-0.1607,-0.1613,-0.1613,-0.1519,0,0,0,0,0,-0.1319,-0.1347,-0.1381,-0.1409,-0.1425,-0.1453,-0.1473,-0.1493,-0.1516,-0.1531,-0.1546,-0.1558,-0.1567,-0.1582,-0.1585,-0.1613,-0.1602,-0.1629,-0.1636,-0.1642,-0.1643,-0.1656,-0.1664,-0.1577,-0.1577,-0.1577,0,0,-0.1322,-0.1348,-0.1365,-0.1409,-0.1431,-0.1465,-0.1467,-0.1505,-0.1539,-0.1527,-0.158,-0.1582,-0.1579,-0.1609,-0.1623,-0.1611,-0.1662,-0.1645,-0.165,-0.1647,-0.1659,-0.1667,-0.1675,-0.1579,-0.1578,-0.1578,0,0,-0.1334,-0.1366,-0.1391,-0.1422,-0.1466,-0.1486,-0.1504,-0.1544,-0.1571,-0.1615,-0.1613,-0.1635,-0.1658,-0.1663,-0.1665,-0.171,-0.1693,-0.1714,-0.1755,-0.1769,-0.1776,-0.1782,-0.1784,-0.179,-0.1722,-0.1723,-0.1723,0,-0.1337,-0.1376,-0.1403,-0.1437,-0.1469,-0.15,-0.1537,-0.1566,-0.1615,-0.1641,-0.1641,-0.1685,-0.1681,-0.1716,-0.173,-0.1726,-0.1727,-0.1727,-0.1778,-0.1784,-0.1789,-0.1789,-0.1795,-0.1726,-0.1726,-0.1725,-0.1725,0,-0.136,-0.1404,-0.1423,-0.1477,-0.1514,-0.1552,-0.1597,-0.1639,-0.1673,-0.1702,-0.1754,-0.1755,-0.1779,-0.1784,-0.1771,-0.1811,-0.1797,-0.1782,-0.1759,-0.1802,-0.1799,-0.1804,-0.1731,-0.173,-0.1729,-0.1728,0,0,-0.1331,-0.1422,-0.1431,-0.1472,-0.1543,-0.1573,-0.1636,-0.1697,-0.1743,-0.1785,-0.184,-0.1857,-0.1862,-0.1864,-0.1857,-0.1869,-0.1904,-0.1847,-0.1846,-0.1851,-0.1932,-0.1808,-0.18,-0.1904,-0.1905,-0.1906,-0.1917,0,-0.1342,-0.1412,-0.1458,-0.1533,-0.1573,-0.1632,-0.1689,-0.1751,-0.1798,-0.1858,-0.1876,-0.1916,-0.1892,-0.1908,-0.192,-0.1906,-0.1918,-0.1902,-0.1887,-0.1886,-0.1772,-0.1802,-0.1909,-0.192,-0.1921,-0.1922,-0.1922,0,-0.1342,-0.1395,-0.147,-0.1573,-0.1597,-0.1649,-0.1747,-0.1801,-0.1884,-0.1922,-0.1968,-0.1982,-0.2012,-0.1981,-0.1992,-0.1985,-0.1964,-0.195,-0.195,-0.181,-0.177,-0.1866,-0.193,-0.193,-0.1929,-0.1928,-0.1928,0,-0.1296,-0.1401,-0.1465,-0.15,-0.1617,-0.1668,-0.173,-0.1822,-0.1873,-0.1962,-0.2002,-0.2045,-0.2063,-0.2058,-0.2023,-0.2017,-0.2022,-0.2009,-0.1879,-0.187,-0.195,-0.1943,-0.2014,-0.2014,-0.2014,-0.2014,-0.2014,0,-0.1278,-0.1332,-0.1455,-0.149,-0.1569,-0.1659,-0.1743,-0.1811,-0.1907,-0.1956,-0.2027,-0.2051,-0.2083,-0.2085,-0.2052,-0.197,-0.2045,-0.1884,-0.1864,-0.1979,-0.1975,-0.1954,-0.1946,-0.2014,-0.2014,-0.2014,-0.2014,0,-0.1211,-0.1296,-0.1372,-0.1504,-0.1549,-0.1602,-0.1736,-0.1792,-0.1893,-0.1957,-0.1986,-0.2066,-0.206,-0.207,-0.2056,-0.1986,-0.1935,-0.1888,-0.2011,-0.1997,-0.1771,-0.1768,-0.1749,-0.1745,-0.1741,-0.1738,-0.1736,0,-0.1182,-0.1216,-0.1357,-0.1402,-0.1466,-0.1564,-0.163,-0.1762,-0.1808,-0.1937,-0.1946,-0.1998,-0.2024,-0.1908,-0.1934,-0.1875,-0.1844,-0.182,-0.179,-0.1761,-0.1744,-0.1747,-0.1748,-0.173,-0.1729,-0.1728,-0.1727,0,-0.1116,-0.1173,-0.1235,-0.1323,-0.1404,-0.1477,-0.1573,-0.1599,-0.1735,-0.1852,-0.185,-0.1846,-0.1839,-0.1815,-0.1782,-0.1737,-0.1839,-0.1781,-0.1788,-0.176,-0.1738,-0.1725,-0.173,-0.1714,-0.1716,-0.1717,-0.1718,0,-0.1059,-0.1078,-0.1159,-0.1223,-0.1316,-0.1349,-0.1423,-0.1478,-0.1541,-0.169,-0.1681,-0.1737,-0.1815,-0.1742,-0.171,-0.166,-0.163,-0.1578,-0.1596,-0.161,-0.1556,-0.1506,-0.1392,0,0,0,0,0,-0.0992,-0.0998,-0.1052,-0.1113,-0.1197,-0.1238,-0.1365,-0.1442,-0.1581,-0.1537,-0.1603,-0.1587,-0.1556,-0.1588,-0.1501,-0.1635,-0.1629,-0.1528,-0.1578,-0.1644,-0.1659,-0.1606,0,0,0,0,0,0,-0.0947,-0.0987,-0.1006,-0.0997,-0.1012,-0.1082,-0.1153,-0.1254,-0.1236,-0.1383,-0.1366,-0.148,-0.1461,-0.156,-0.1457,-0.1466,-0.1465,-0.1574,-0.1569,-0.1635,-0.1649,-0.1661,-0.1612,0,0,0,0,0]},{"header":{"parameterUnit":"m.s-1","parameterCategory":2,"la1":30.2991,"la2":30.254,"lo1":-89.0895,"lo2":-89.0444,"dy":0.0017,"dx":0.0017,"nx":28,"ny":28,"refTime":"2024-04-09T09:00:00:Z","depth":"4","parameterNumber":3,"parameterNumberName":"V-component_of_CURRENTS"},"data":[0,0,0,0,0,0,0,0,0,0,0,0,0,0,0,0,0,0,0,0,0,0,0,0,0,0,0,0,0,0,0,0,0,0,0,0,0,0,0,0,0,0,0,0,0,0,0,0,0,0,0,0,0,0,0,0,0,0,-0.0158,-0.0158,0,-0.0109,-0.0108,-0.0108,-0.0075,-0.0075,-0.0075,-0.0075,-0.0005,-0.0004,-0.0002,0,0,0,0,0,0,0,0,0,0,0,0,0,-0.0195,-0.0194,-0.0158,-0.0158,-0.0157,-0.0109,-0.0108,-0.0108,-0.0075,-0.0075,-0.0075,-0.0075,-0.0006,-0.0004,-0.0002,0,0,0,0,0,0,0,0,0,0,0,0,0,-0.0165,-0.0194,-0.0159,-0.0136,-0.0134,-0.0109,-0.0108,-0.0107,-0.0075,-0.0075,-0.0075,-0.0075,-0.0007,-0.0004,-0.0001,0.0011,0,0,0.0007,0.0008,0,0,0,0,0,0,0,0,-0.0166,-0.0163,-0.014,-0.0138,-0.0135,-0.0099,-0.0096,-0.0067,-0.0075,-0.0097,-0.0075,-0.0075,-0.0036,-0.0031,-0.0021,0.0014,0.0017,0.0007,0.0008,0.0009,0.001,0,0,0,0,0,0,0,-0.0169,-0.0165,-0.0138,-0.014,-0.0136,-0.0118,-0.0114,-0.009,-0.0067,-0.0095,-0.0093,-0.0089,-0.0034,-0.0023,-0.0019,0.0018,0.0007,0.0009,0.0011,0.0012,0.0082,0.0083,0,0,0,0,0,0,-0.0178,-0.0167,-0.0139,-0.0136,-0.0152,-0.0118,-0.0113,-0.011,-0.0067,-0.0061,-0.0089,-0.0087,-0.0028,-0.0022,-0.0016,0.0011,0.0009,0.0012,0.0013,0.0082,0.0082,0.0083,0,0,0,0,0,0,-0.0179,-0.0176,-0.0141,-0.0151,-0.0146,-0.0118,-0.0114,-0.0109,-0.0099,-0.0063,-0.0056,-0.0085,-0.0027,-0.002,0.0008,0.0014,0.0013,0.0015,0.0082,0.0082,0.0083,0.0059,0,0,0,0,0,0,-0.0181,-0.0177,-0.0181,-0.0152,-0.0146,-0.0133,-0.0114,-0.0108,-0.0098,-0.0095,-0.0057,-0.0051,-0.0027,0.0004,0.001,0.0017,0.0018,0.0081,0.0082,0.0082,0.0059,0.0059,0.0058,0,0,0,0,0,-0.0182,-0.019,-0.0182,-0.0178,-0.0151,-0.0133,-0.0128,-0.0107,-0.0098,-0.0097,-0.0066,-0.0052,0.0012,0.0006,0.0014,0.0021,0.0081,0.0082,0.0082,0.006,0.0059,0.0058,0,0,0,0,0,0,-0.0209,-0.0186,-0.0177,-0.0178,-0.0159,-0.0128,-0.0128,-0.011,-0.0086,-0.0084,-0.0048,-0.0039,-0.0013,0.0007,-0.0,0.0044,0.0049,0.0051,0.0029,0.0028,0.0028,0.0014,0.002,0,0,0,0,0,-0.0217,-0.0217,-0.019,-0.0192,-0.0185,-0.0157,-0.0148,-0.0133,-0.0107,-0.0096,-0.0067,-0.0035,-0.0004,0.0013,0.0039,0.0064,0.0089,0.0074,0.0073,0.0072,0.0067,0.0117,0.012,0.0085,0.0085,0.0085,0,0,-0.0229,-0.0216,-0.0217,-0.0198,-0.0183,-0.0178,-0.0151,-0.0142,-0.0133,-0.0092,-0.0072,-0.0039,0.0001,0.0029,0.0042,0.0047,0.0096,0.0073,0.0072,0.0067,0.0118,0.0121,0.0124,0.0086,0.0085,0.0085,0,0,-0.0255,-0.0241,-0.0252,-0.0238,-0.0219,-0.0199,-0.0198,-0.0167,-0.0149,-0.0125,-0.009,-0.0052,-0.0014,0.0025,0.0048,0.0059,0.0087,0.0064,0.0055,0.0103,0.0106,0.011,0.0145,0.0151,0.0068,0.0068,0.0068,0,-0.0273,-0.0279,-0.0252,-0.0256,-0.025,-0.0211,-0.0218,-0.0192,-0.0154,-0.0136,-0.0126,-0.0048,-0.0013,0.0037,0.0041,0.0058,0.0082,0.0054,0.0102,0.0106,0.0109,0.0145,0.0152,0.0067,0.0067,0.0067,0.0067,0,-0.0302,-0.0308,-0.0313,-0.0305,-0.0291,-0.0292,-0.0254,-0.0236,-0.0209,-0.0176,-0.0126,-0.0069,-0.0022,0.0,0.0024,0.007,0.0077,0.0092,0.0102,0.0111,0.0148,0.0156,0.0065,0.0066,0.0066,0.0066,0,0,-0.0339,-0.0337,-0.0339,-0.0348,-0.0319,-0.0314,-0.0293,-0.0262,-0.0248,-0.0194,-0.0165,-0.0094,-0.0056,-0.0028,0.0019,0.0066,0.0117,0.0085,0.0088,0.0115,0.0214,0.0186,0.0193,0.0139,0.014,0.0141,0.0229,0,-0.0373,-0.0403,-0.0382,-0.0402,-0.0415,-0.037,-0.0356,-0.0317,-0.0274,-0.0235,-0.0154,-0.0112,-0.0067,-0.0043,0.0015,0.0091,0.0138,0.0091,0.0205,0.0208,0.0179,0.0201,0.0146,0.0235,0.0237,0.0238,0.0239,0,-0.0407,-0.0425,-0.0459,-0.046,-0.0459,-0.046,-0.043,-0.041,-0.0336,-0.0299,-0.0229,-0.0166,-0.0077,-0.0049,0.0094,0.006,0.0129,0.0189,0.0195,0.018,0.0195,0.0226,0.0254,0.0253,0.0252,0.0251,0.025,0,-0.0456,-0.0475,-0.0508,-0.0508,-0.05,-0.0503,-0.0492,-0.0435,-0.0418,-0.0339,-0.0313,-0.0196,-0.0138,-0.003,0.0103,0.0097,0.0252,0.0262,0.0304,0.0303,0.0312,0.0308,0.0354,0.0354,0.0354,0.0353,0.0353,0,-0.0497,-0.0524,-0.054,-0.0558,-0.0595,-0.0561,-0.0573,-0.0541,-0.0487,-0.0463,-0.0353,-0.0302,-0.0132,-0.0018,0.0093,0.0225,0.0251,0.0303,0.0326,0.03,0.0293,0.0318,0.0313,0.0357,0.0356,0.0355,0.0355,0,-0.054,-0.0552,-0.0594,-0.0611,-0.0624,-0.0647,-0.0646,-0.0643,-0.0584,-0.0549,-0.0526,-0.0374,-0.0224,-0.0057,0.0129,0.0207,0.0337,0.0375,0.033,0.0349,0.0356,0.0349,0.0425,0.0425,0.0425,0.0425,0.0425,0,-0.0563,-0.0593,-0.0646,-0.0685,-0.07,-0.073,-0.0749,-0.0705,-0.069,-0.059,-0.0571,-0.042,-0.0307,-0.0057,0.0112,0.0322,0.0346,0.0405,0.0384,0.035,0.0365,0.0358,0.0351,0.0424,0.0424,0.0424,0.0424,0,-0.0606,-0.0628,-0.0665,-0.0752,-0.0795,-0.083,-0.0846,-0.0841,-0.0771,-0.0724,-0.0599,-0.0451,-0.0279,-0.0071,0.0096,0.0246,0.0363,0.0403,0.0404,0.0386,0.035,0.0363,0.0357,0.0424,0.0424,0.0424,0.0424,0,-0.0634,-0.0675,-0.0735,-0.0804,-0.0868,-0.0904,-0.0905,-0.0868,-0.0838,-0.0714,-0.0675,-0.047,-0.0338,-0.011,0.0044,0.0189,0.0217,0.0248,0.0257,0.026,0.0184,0.0112,0.0135,0,0,0,0,0,-0.0655,-0.0708,-0.0783,-0.0851,-0.0913,-0.0946,-0.0955,-0.0934,-0.0868,-0.0794,-0.0729,-0.0565,-0.0309,-0.0183,-0.0044,0.0023,0.0228,0.0186,0.0263,0.042,0.0421,0.0356,0,0,0,0,0,0,-0.0673,-0.0747,-0.0787,-0.0873,-0.0925,-0.098,-0.0988,-0.0946,-0.0885,-0.0801,-0.0658,-0.0559,-0.0304,-0.0393,-0.0051,-0.0003,0.0057,0.0319,0.0321,0.042,0.042,0.0421,0.0355,0,0,0,0,0]}]]